contact:dominique.lefevre@mio.osupytheas.fr, maurice.libes@osupytheas.fr, didier.mallarino@osupytheas.fr
Project:EMSO http://www.emso-fr.org/EMSO-France
Depth: 2436.0 m
Title:EMSO Ligure Ouest : Data MII capteur MICROCAT
DateTime_Computer,Latitude,Longitude,Temperature,Conductivity,Pressure,DateTime_Instrument
DateTime_Computer,Latitude,Longitude,degC,S m-1,dbar,DateTime_Instrument
2020-01-04T00:00:50Z,42.805,6.029,13.2976,4.60041,2470.03,2020-1-04T02:01:21Z
2020-01-04T00:03:53Z,42.805,6.029,13.2976,4.60049,2470.04,2020-1-04T02:04:25Z
2020-01-04T00:06:56Z,42.805,6.029,13.2978,4.60048,2470.03,2020-1-04T02:07:28Z
2020-01-04T00:09:59Z,42.805,6.029,13.2986,4.60044,2470.03,2020-1-04T02:10:31Z
2020-01-04T00:13:03Z,42.805,6.029,13.2998,4.60066,2470.03,2020-1-04T02:13:34Z
2020-01-04T00:16:06Z,42.805,6.029,13.2989,4.60053,2470.017,2020-1-04T02:16:38Z
2020-01-04T00:19:09Z,42.805,6.029,13.2991,4.60044,2470.03,2020-1-04T02:19:41Z
2020-01-04T00:22:12Z,42.805,6.029,13.2986,4.60058,2470.007,2020-1-04T02:22:44Z
2020-01-04T00:25:16Z,42.805,6.029,13.2990,4.60042,2469.993,2020-1-04T02:25:47Z
2020-01-04T00:28:19Z,42.805,6.029,13.2990,4.60039,2470.007,2020-1-04T02:28:50Z
2020-01-04T00:31:22Z,42.805,6.029,13.2995,4.60031,2469.993,2020-1-04T02:31:54Z
2020-01-04T00:34:25Z,42.805,6.029,13.2981,4.60036,2469.993,2020-1-04T02:34:57Z
2020-01-04T00:37:28Z,42.805,6.029,13.3010,4.60039,2470.007,2020-1-04T02:38:00Z
2020-01-04T00:40:32Z,42.805,6.029,13.2991,4.60036,2470.017,2020-1-04T02:41:03Z
2020-01-04T00:43:35Z,42.805,6.029,13.2986,4.60029,2470.03,2020-1-04T02:44:07Z
2020-01-04T00:46:38Z,42.805,6.029,13.2985,4.60053,2470.03,2020-1-04T02:47:10Z
2020-01-04T00:49:41Z,42.805,6.029,13.2989,4.60053,2469.97,2020-1-04T02:50:13Z
2020-01-04T00:52:45Z,42.805,6.029,13.2991,4.60054,2470.03,2020-1-04T02:53:16Z
2020-01-04T00:55:48Z,42.805,6.029,13.2987,4.60049,2470.053,2020-1-04T02:56:20Z
2020-01-04T00:58:51Z,42.805,6.029,13.2991,4.60018,2470.03,2020-1-04T02:59:23Z
2020-01-04T01:01:54Z,42.805,6.029,13.2992,4.60024,2470.017,2020-1-04T03:02:26Z
2020-01-04T01:04:58Z,42.805,6.029,13.2997,4.60040,2470.017,2020-1-04T03:05:29Z
2020-01-04T01:08:01Z,42.805,6.029,13.3015,4.60054,2470.017,2020-1-04T03:08:32Z
2020-01-04T01:11:04Z,42.805,6.029,13.3005,4.60037,2470.017,2020-1-04T03:11:36Z
2020-01-04T01:14:07Z,42.805,6.029,13.3009,4.60043,2470.04,2020-1-04T03:14:39Z
2020-01-04T01:17:10Z,42.805,6.029,13.2988,4.60019,2470.017,2020-1-04T03:17:42Z
2020-01-04T01:20:14Z,42.805,6.029,13.2990,4.60006,2470.03,2020-1-04T03:20:45Z
2020-01-04T01:23:17Z,42.805,6.029,13.3000,4.60010,2470.053,2020-1-04T03:23:48Z
2020-01-04T01:26:20Z,42.805,6.029,13.3004,4.60040,2470.03,2020-1-04T03:26:52Z
2020-01-04T01:29:23Z,42.805,6.029,13.2986,4.60032,2470.007,2020-1-04T03:29:55Z
2020-01-04T01:32:27Z,42.805,6.029,13.2991,4.60020,2470.053,2020-1-04T03:32:58Z
2020-01-04T01:35:30Z,42.805,6.029,13.2998,4.60013,2470.03,2020-1-04T03:36:01Z
2020-01-04T01:38:33Z,42.805,6.029,13.3004,4.60029,2470.053,2020-1-04T03:39:05Z
2020-01-04T01:41:36Z,42.805,6.029,13.2989,4.60029,2470.017,2020-1-04T03:42:08Z
2020-01-04T01:44:39Z,42.805,6.029,13.2979,4.60033,2470.04,2020-1-04T03:45:11Z
2020-01-04T01:47:43Z,42.805,6.029,13.3011,4.60062,2470.03,2020-1-04T03:48:14Z
2020-01-04T01:50:46Z,42.805,6.029,13.2986,4.60054,2469.993,2020-1-04T03:51:18Z
2020-01-04T01:53:49Z,42.805,6.029,13.2998,4.60009,2470.053,2020-1-04T03:54:21Z
2020-01-04T01:56:52Z,42.805,6.029,13.3004,4.60023,2470.03,2020-1-04T03:57:24Z
2020-01-04T01:59:56Z,42.805,6.029,13.3012,4.60029,2470.007,2020-1-04T04:00:27Z
2020-01-04T02:02:59Z,42.805,6.029,13.2988,4.60017,2470.03,2020-1-04T04:03:30Z
2020-01-04T02:06:02Z,42.805,6.029,13.2987,4.60034,2470.053,2020-1-04T04:06:34Z
2020-01-04T02:09:05Z,42.805,6.029,13.2997,4.60023,2470.007,2020-1-04T04:09:37Z
2020-01-04T02:12:08Z,42.805,6.029,13.2997,4.60027,2469.993,2020-1-04T04:12:40Z
2020-01-04T02:15:12Z,42.805,6.029,13.2996,4.60020,2469.993,2020-1-04T04:15:43Z
2020-01-04T02:18:15Z,42.805,6.029,13.2986,4.60029,2470.04,2020-1-04T04:18:47Z
2020-01-04T02:21:18Z,42.805,6.029,13.2998,4.60046,2470.053,2020-1-04T04:21:50Z
2020-01-04T02:24:21Z,42.805,6.029,13.2994,4.60019,2470.053,2020-1-04T04:24:53Z
2020-01-04T02:27:25Z,42.805,6.029,13.3005,4.60009,2470.03,2020-1-04T04:27:56Z
2020-01-04T02:30:28Z,42.805,6.029,13.2999,4.60003,2470.03,2020-1-04T04:30:59Z
2020-01-04T02:33:31Z,42.805,6.029,13.2998,4.60032,2470.017,2020-1-04T04:34:03Z
2020-01-04T02:36:34Z,42.805,6.029,13.2979,4.60028,2470.017,2020-1-04T04:37:06Z
2020-01-04T02:39:38Z,42.805,6.029,13.2989,4.60034,2470.017,2020-1-04T04:40:09Z
2020-01-04T02:42:41Z,42.805,6.029,13.2993,4.60054,2470.03,2020-1-04T04:43:13Z
2020-01-04T02:45:44Z,42.805,6.029,13.3011,4.60036,2469.993,2020-1-04T04:46:16Z
2020-01-04T02:48:47Z,42.805,6.029,13.2999,4.60011,2470.03,2020-1-04T04:49:19Z
2020-01-04T02:51:51Z,42.805,6.029,13.3000,4.60028,2469.993,2020-1-04T04:52:22Z
2020-01-04T02:54:54Z,42.805,6.029,13.3013,4.60016,2470.017,2020-1-04T04:55:25Z
2020-01-04T02:57:57Z,42.805,6.029,13.2998,4.59997,2470.007,2020-1-04T04:58:29Z
2020-01-04T03:01:00Z,42.805,6.029,13.3004,4.59999,2470.017,2020-1-04T05:01:32Z
2020-01-04T03:04:03Z,42.805,6.029,13.2996,4.59991,2470.053,2020-1-04T05:04:35Z
2020-01-04T03:07:07Z,42.805,6.029,13.2997,4.59996,2470.03,2020-1-04T05:07:38Z
2020-01-04T03:10:10Z,42.805,6.029,13.2996,4.60024,2470.03,2020-1-04T05:10:41Z
2020-01-04T03:13:13Z,42.805,6.029,13.3004,4.59991,2470.017,2020-1-04T05:13:45Z
2020-01-04T03:16:16Z,42.805,6.029,13.2991,4.59984,2470.04,2020-1-04T05:16:48Z
2020-01-04T03:19:19Z,42.805,6.029,13.3002,4.60014,2469.993,2020-1-04T05:19:51Z
2020-01-04T03:22:23Z,42.805,6.029,13.2995,4.60017,2470.077,2020-1-04T05:22:54Z
2020-01-04T03:25:26Z,42.805,6.029,13.2997,4.60016,2469.993,2020-1-04T05:25:58Z
2020-01-04T03:28:29Z,42.805,6.029,13.3002,4.59994,2469.984,2020-1-04T05:29:01Z
2020-01-04T03:31:32Z,42.805,6.029,13.2998,4.60044,2470.007,2020-1-04T05:32:04Z
2020-01-04T03:34:36Z,42.805,6.029,13.2994,4.60006,2470.03,2020-1-04T05:35:07Z
2020-01-04T03:37:39Z,42.805,6.029,13.2996,4.60000,2470.04,2020-1-04T05:38:11Z
2020-01-04T03:40:42Z,42.805,6.029,13.3006,4.59973,2470.007,2020-1-04T05:41:14Z
2020-01-04T03:43:45Z,42.805,6.029,13.3014,4.59975,2470.017,2020-1-04T05:44:17Z
2020-01-04T03:46:49Z,42.805,6.029,13.2999,4.59995,2470.017,2020-1-04T05:47:20Z
2020-01-04T03:49:52Z,42.805,6.029,13.3003,4.60029,2470.007,2020-1-04T05:50:23Z
2020-01-04T03:52:55Z,42.805,6.029,13.3007,4.60041,2470.007,2020-1-04T05:53:27Z
2020-01-04T03:55:58Z,42.805,6.029,13.3006,4.60003,2470.017,2020-1-04T05:56:30Z
2020-01-04T03:59:01Z,42.805,6.029,13.3006,4.60031,2469.993,2020-1-04T05:59:33Z
2020-01-04T04:02:05Z,42.805,6.029,13.3002,4.59997,2470.017,2020-1-04T06:02:36Z
2020-01-04T04:05:08Z,42.805,6.029,13.2985,4.60003,2470.03,2020-1-04T06:05:40Z
2020-01-04T04:08:11Z,42.805,6.029,13.2988,4.59991,2470.017,2020-1-04T06:08:43Z
2020-01-04T04:11:14Z,42.805,6.029,13.2996,4.59996,2469.993,2020-1-04T06:11:46Z
2020-01-04T04:14:18Z,42.805,6.029,13.2983,4.59970,2469.993,2020-1-04T06:14:49Z
2020-01-04T04:17:21Z,42.805,6.029,13.3007,4.59986,2470.03,2020-1-04T06:17:52Z
2020-01-04T04:20:24Z,42.805,6.029,13.2991,4.59978,2470.03,2020-1-04T06:20:56Z
2020-01-04T04:23:27Z,42.805,6.029,13.2983,4.59997,2470.007,2020-1-04T06:23:59Z
2020-01-04T04:26:30Z,42.805,6.029,13.2988,4.59997,2469.993,2020-1-04T06:27:02Z
2020-01-04T04:29:34Z,42.805,6.029,13.3000,4.60006,2470.053,2020-1-04T06:30:05Z
2020-01-04T04:32:37Z,42.805,6.029,13.2990,4.60011,2470.03,2020-1-04T06:33:09Z
2020-01-04T04:35:40Z,42.805,6.029,13.2996,4.60014,2470.03,2020-1-04T06:36:12Z
2020-01-04T04:38:43Z,42.805,6.029,13.2994,4.60003,2470.007,2020-1-04T06:39:15Z
2020-01-04T04:41:47Z,42.805,6.029,13.2990,4.60019,2470.03,2020-1-04T06:42:18Z
2020-01-04T04:44:50Z,42.805,6.029,13.2998,4.60033,2470.03,2020-1-04T06:45:22Z
2020-01-04T04:47:53Z,42.805,6.029,13.2984,4.60031,2470.017,2020-1-04T06:48:25Z
2020-01-04T04:50:57Z,42.805,6.029,13.2993,4.60016,2470.03,2020-1-04T06:51:28Z
2020-01-04T04:54:00Z,42.805,6.029,13.2996,4.60009,2470.04,2020-1-04T06:54:31Z
2020-01-04T04:57:03Z,42.805,6.029,13.2992,4.59986,2470.007,2020-1-04T06:57:35Z
2020-01-04T05:00:06Z,42.805,6.029,13.2991,4.60010,2470.03,2020-1-04T07:00:38Z
2020-01-04T05:03:10Z,42.805,6.029,13.2996,4.59993,2470.03,2020-1-04T07:03:41Z
2020-01-04T05:06:13Z,42.805,6.029,13.2983,4.60013,2470.007,2020-1-04T07:06:45Z
2020-01-04T05:09:16Z,42.805,6.029,13.2982,4.60005,2470.007,2020-1-04T07:09:48Z
2020-01-04T05:12:19Z,42.805,6.029,13.2994,4.60010,2469.993,2020-1-04T07:12:51Z
2020-01-04T05:15:23Z,42.805,6.029,13.2981,4.60017,2470.03,2020-1-04T07:15:54Z
2020-01-04T05:18:26Z,42.805,6.029,13.2999,4.60008,2470.03,2020-1-04T07:18:57Z
2020-01-04T05:21:29Z,42.805,6.029,13.2990,4.60041,2470.03,2020-1-04T07:22:01Z
2020-01-04T05:24:32Z,42.805,6.029,13.2984,4.60032,2470.007,2020-1-04T07:25:04Z
2020-01-04T05:27:36Z,42.805,6.029,13.2993,4.60022,2470.017,2020-1-04T07:28:07Z
2020-01-04T05:30:39Z,42.805,6.029,13.2997,4.60005,2470.007,2020-1-04T07:31:10Z
2020-01-04T05:33:42Z,42.805,6.029,13.2993,4.60015,2470.017,2020-1-04T07:34:14Z
2020-01-04T05:36:45Z,42.805,6.029,13.2993,4.60014,2470.03,2020-1-04T07:37:17Z
2020-01-04T05:39:48Z,42.805,6.029,13.3001,4.60022,2469.993,2020-1-04T07:40:20Z
2020-01-04T05:42:52Z,42.805,6.029,13.2992,4.59993,2470.03,2020-1-04T07:43:23Z
2020-01-04T05:45:55Z,42.805,6.029,13.2990,4.60024,2470.03,2020-1-04T07:46:26Z
2020-01-04T05:48:58Z,42.805,6.029,13.2984,4.59985,2469.984,2020-1-04T07:49:30Z
2020-01-04T05:52:01Z,42.805,6.029,13.2987,4.59990,2469.984,2020-1-04T07:52:33Z
2020-01-04T05:55:05Z,42.805,6.029,13.2985,4.60021,2469.97,2020-1-04T07:55:36Z
2020-01-04T05:58:08Z,42.805,6.029,13.2990,4.60028,2470.007,2020-1-04T07:58:39Z
2020-01-04T06:01:11Z,42.805,6.029,13.2985,4.60017,2470.017,2020-1-04T08:01:43Z
2020-01-04T06:04:14Z,42.805,6.029,13.2983,4.59996,2470.007,2020-1-04T08:04:46Z
2020-01-04T06:07:17Z,42.805,6.029,13.2999,4.60019,2469.993,2020-1-04T08:07:49Z
2020-01-04T06:10:21Z,42.805,6.029,13.2980,4.60018,2469.984,2020-1-04T08:10:52Z
2020-01-04T06:13:24Z,42.805,6.029,13.3001,4.60021,2470.007,2020-1-04T08:13:56Z
2020-01-04T06:16:27Z,42.805,6.029,13.2991,4.60019,2470.007,2020-1-04T08:16:59Z
2020-01-04T06:19:30Z,42.805,6.029,13.2996,4.60035,2469.97,2020-1-04T08:20:02Z
2020-01-04T06:22:34Z,42.805,6.029,13.2994,4.60003,2469.993,2020-1-04T08:23:05Z
2020-01-04T06:25:37Z,42.805,6.029,13.2979,4.60019,2470.007,2020-1-04T08:26:09Z
2020-01-04T06:28:40Z,42.805,6.029,13.2990,4.60007,2470.03,2020-1-04T08:29:12Z
2020-01-04T06:31:43Z,42.805,6.029,13.2996,4.59999,2470.017,2020-1-04T08:32:15Z
2020-01-04T06:34:47Z,42.805,6.029,13.2991,4.59988,2469.97,2020-1-04T08:35:18Z
2020-01-04T06:37:50Z,42.805,6.029,13.2989,4.59996,2470.007,2020-1-04T08:38:21Z
2020-01-04T06:40:53Z,42.805,6.029,13.2997,4.60030,2470.007,2020-1-04T08:41:25Z
2020-01-04T06:43:56Z,42.805,6.029,13.2989,4.59991,2470.007,2020-1-04T08:44:28Z
2020-01-04T06:46:59Z,42.805,6.029,13.2986,4.59995,2470.017,2020-1-04T08:47:31Z
2020-01-04T06:50:03Z,42.805,6.029,13.2977,4.60021,2470.007,2020-1-04T08:50:34Z
2020-01-04T06:53:06Z,42.805,6.029,13.2979,4.60012,2469.993,2020-1-04T08:53:37Z
2020-01-04T06:56:09Z,42.805,6.029,13.2983,4.60032,2470.017,2020-1-04T08:56:41Z
2020-01-04T06:59:12Z,42.805,6.029,13.2991,4.59992,2469.984,2020-1-04T08:59:44Z
2020-01-04T07:02:16Z,42.805,6.029,13.2979,4.60008,2470.007,2020-1-04T09:02:47Z
2020-01-04T07:05:19Z,42.805,6.029,13.2982,4.60005,2470.007,2020-1-04T09:05:51Z
2020-01-04T07:08:22Z,42.805,6.029,13.2980,4.60010,2469.97,2020-1-04T09:08:54Z
2020-01-04T07:11:25Z,42.805,6.029,13.2990,4.60028,2469.993,2020-1-04T09:11:57Z
2020-01-04T07:14:29Z,42.805,6.029,13.2986,4.60003,2470.017,2020-1-04T09:15:00Z
2020-01-04T07:17:32Z,42.805,6.029,13.2990,4.60018,2469.96,2020-1-04T09:18:03Z
2020-01-04T07:20:35Z,42.805,6.029,13.2977,4.60009,2469.97,2020-1-04T09:21:07Z
2020-01-04T07:23:38Z,42.805,6.029,13.2983,4.60038,2469.993,2020-1-04T09:24:10Z
2020-01-04T07:26:41Z,42.805,6.029,13.2973,4.60016,2470.017,2020-1-04T09:27:13Z
2020-01-04T07:29:45Z,42.805,6.029,13.2977,4.60007,2470.017,2020-1-04T09:30:16Z
2020-01-04T07:32:48Z,42.805,6.029,13.2991,4.60012,2469.993,2020-1-04T09:33:20Z
2020-01-04T07:35:52Z,42.805,6.029,13.2975,4.59998,2470.007,2020-1-04T09:36:23Z
2020-01-04T07:38:55Z,42.805,6.029,13.2974,4.60013,2470.017,2020-1-04T09:39:27Z
2020-01-04T07:41:58Z,42.805,6.029,13.2975,4.60008,2469.993,2020-1-04T09:42:30Z
2020-01-04T07:45:01Z,42.805,6.029,13.2976,4.59993,2469.96,2020-1-04T09:45:33Z
2020-01-04T07:48:05Z,42.805,6.029,13.2970,4.60024,2470.017,2020-1-04T09:48:36Z
2020-01-04T07:51:08Z,42.805,6.029,13.2975,4.60012,2469.993,2020-1-04T09:51:39Z
2020-01-04T07:54:11Z,42.805,6.029,13.2968,4.59999,2469.993,2020-1-04T09:54:43Z
2020-01-04T07:57:14Z,42.805,6.029,13.2983,4.60007,2470.007,2020-1-04T09:57:46Z
2020-01-04T08:00:17Z,42.805,6.029,13.2993,4.60020,2469.993,2020-1-04T10:00:49Z
2020-01-04T08:03:21Z,42.805,6.029,13.2983,4.60014,2470.007,2020-1-04T10:03:52Z
2020-01-04T08:06:24Z,42.805,6.029,13.2982,4.60019,2469.993,2020-1-04T10:06:56Z
2020-01-04T08:09:27Z,42.805,6.029,13.2970,4.60014,2469.993,2020-1-04T10:09:59Z
2020-01-04T08:12:30Z,42.805,6.029,13.2968,4.59998,2469.993,2020-1-04T10:13:02Z
2020-01-04T08:15:34Z,42.805,6.029,13.2979,4.60006,2469.956,2020-1-04T10:16:05Z
2020-01-04T08:18:37Z,42.805,6.029,13.2972,4.60001,2470.017,2020-1-04T10:19:08Z
2020-01-04T08:21:40Z,42.805,6.029,13.2991,4.60026,2469.984,2020-1-04T10:22:12Z
2020-01-04T08:24:43Z,42.805,6.029,13.2969,4.60013,2470.007,2020-1-04T10:25:15Z
2020-01-04T08:27:47Z,42.805,6.029,13.2979,4.60026,2470.007,2020-1-04T10:28:18Z
2020-01-04T08:30:50Z,42.805,6.029,13.2991,4.60011,2469.984,2020-1-04T10:31:21Z
2020-01-04T08:33:53Z,42.805,6.029,13.2985,4.60006,2470.007,2020-1-04T10:34:25Z
2020-01-04T08:36:56Z,42.805,6.029,13.2970,4.60002,2469.993,2020-1-04T10:37:28Z
2020-01-04T08:40:00Z,42.805,6.029,13.2971,4.59999,2469.993,2020-1-04T10:40:31Z
2020-01-04T08:43:03Z,42.805,6.029,13.2986,4.60030,2470.017,2020-1-04T10:43:34Z
2020-01-04T08:46:06Z,42.805,6.029,13.2980,4.60023,2470.007,2020-1-04T10:46:38Z
2020-01-04T08:49:09Z,42.805,6.029,13.2978,4.60037,2469.97,2020-1-04T10:49:41Z
2020-01-04T08:52:13Z,42.805,6.029,13.2983,4.60027,2470.007,2020-1-04T10:52:44Z
2020-01-04T08:55:16Z,42.805,6.029,13.2972,4.60016,2470.007,2020-1-04T10:55:47Z
2020-01-04T08:58:19Z,42.805,6.029,13.2972,4.60014,2469.97,2020-1-04T10:58:51Z
2020-01-04T09:01:22Z,42.805,6.029,13.2976,4.60003,2470.017,2020-1-04T11:01:54Z
2020-01-04T09:04:26Z,42.805,6.029,13.2972,4.60019,2470.03,2020-1-04T11:04:57Z
2020-01-04T09:07:29Z,42.805,6.029,13.2990,4.60013,2469.993,2020-1-04T11:08:00Z
2020-01-04T09:10:32Z,42.805,6.029,13.2983,4.60017,2470.017,2020-1-04T11:11:04Z
2020-01-04T09:13:35Z,42.805,6.029,13.2976,4.60040,2469.993,2020-1-04T11:14:07Z
2020-01-04T09:16:38Z,42.805,6.029,13.2984,4.60001,2469.993,2020-1-04T11:17:10Z
2020-01-04T09:19:42Z,42.805,6.029,13.2990,4.60010,2470.03,2020-1-04T11:20:13Z
2020-01-04T09:22:45Z,42.805,6.029,13.2976,4.59999,2469.993,2020-1-04T11:23:16Z
2020-01-04T09:25:48Z,42.805,6.029,13.2978,4.60015,2469.993,2020-1-04T11:26:20Z
2020-01-04T09:28:51Z,42.805,6.029,13.2993,4.60019,2470.017,2020-1-04T11:29:23Z
2020-01-04T09:31:55Z,42.805,6.029,13.2988,4.60036,2470.03,2020-1-04T11:32:26Z
2020-01-04T09:34:58Z,42.805,6.029,13.2981,4.60044,2470.017,2020-1-04T11:35:29Z
2020-01-04T09:38:01Z,42.805,6.029,13.2986,4.60032,2469.993,2020-1-04T11:38:33Z
2020-01-04T09:41:04Z,42.805,6.029,13.2987,4.60026,2470.017,2020-1-04T11:41:36Z
2020-01-04T09:44:08Z,42.805,6.029,13.2979,4.60024,2469.993,2020-1-04T11:44:39Z
2020-01-04T09:47:11Z,42.805,6.029,13.2989,4.60001,2470.03,2020-1-04T11:47:42Z
2020-01-04T09:50:14Z,42.805,6.029,13.2991,4.60011,2470.04,2020-1-04T11:50:46Z
2020-01-04T09:53:17Z,42.805,6.029,13.2979,4.60018,2470.017,2020-1-04T11:53:49Z
2020-01-04T09:56:20Z,42.805,6.029,13.2971,4.60005,2470.04,2020-1-04T11:56:52Z
2020-01-04T09:59:24Z,42.805,6.029,13.2979,4.60009,2470.017,2020-1-04T11:59:55Z
2020-01-04T10:02:27Z,42.805,6.029,13.2971,4.60009,2470.007,2020-1-04T12:02:58Z
2020-01-04T10:05:30Z,42.805,6.029,13.2981,4.60005,2470.017,2020-1-04T12:06:02Z
2020-01-04T10:08:33Z,42.805,6.029,13.2982,4.60028,2470.03,2020-1-04T12:09:05Z
2020-01-04T10:11:37Z,42.805,6.029,13.2990,4.60032,2470.03,2020-1-04T12:12:08Z
2020-01-04T10:14:40Z,42.805,6.029,13.2985,4.60022,2470.04,2020-1-04T12:15:11Z
2020-01-04T10:17:43Z,42.805,6.029,13.2983,4.60021,2470.03,2020-1-04T12:18:15Z
2020-01-04T10:20:46Z,42.805,6.029,13.2982,4.60014,2470.017,2020-1-04T12:21:18Z
2020-01-04T10:23:49Z,42.805,6.029,13.2993,4.60052,2470.017,2020-1-04T12:24:21Z
2020-01-04T10:26:53Z,42.805,6.029,13.2995,4.60014,2470.04,2020-1-04T12:27:24Z
2020-01-04T10:29:56Z,42.805,6.029,13.2980,4.60011,2470.017,2020-1-04T12:30:28Z
2020-01-04T10:32:59Z,42.805,6.029,13.2979,4.60029,2470.017,2020-1-04T12:33:31Z
2020-01-04T10:36:02Z,42.805,6.029,13.2983,4.60041,2470.053,2020-1-04T12:36:34Z
2020-01-04T10:39:06Z,42.805,6.029,13.2991,4.60040,2470.04,2020-1-04T12:39:37Z
2020-01-04T10:42:09Z,42.805,6.029,13.2979,4.60057,2470.053,2020-1-04T12:42:40Z
2020-01-04T10:45:12Z,42.805,6.029,13.2988,4.60046,2470.03,2020-1-04T12:45:44Z
2020-01-04T10:48:15Z,42.805,6.029,13.2986,4.60059,2470.04,2020-1-04T12:48:47Z
2020-01-04T10:51:19Z,42.805,6.029,13.2991,4.60053,2470.063,2020-1-04T12:51:50Z
2020-01-04T10:54:22Z,42.805,6.029,13.2982,4.60037,2470.053,2020-1-04T12:54:53Z
2020-01-04T10:57:25Z,42.805,6.029,13.2978,4.60006,2470.053,2020-1-04T12:57:57Z
2020-01-04T11:00:28Z,42.805,6.029,13.2984,4.60047,2470.053,2020-1-04T13:01:00Z
2020-01-04T11:03:31Z,42.805,6.029,13.2990,4.60028,2470.077,2020-1-04T13:04:03Z
2020-01-04T11:06:35Z,42.805,6.029,13.3000,4.60029,2470.053,2020-1-04T13:07:06Z
2020-01-04T11:09:38Z,42.805,6.029,13.2991,4.60072,2470.04,2020-1-04T13:10:09Z
2020-01-04T11:12:41Z,42.805,6.029,13.2983,4.60033,2470.077,2020-1-04T13:13:13Z
2020-01-04T11:15:44Z,42.805,6.029,13.2993,4.60021,2470.087,2020-1-04T13:16:16Z
2020-01-04T11:18:48Z,42.805,6.029,13.2982,4.60049,2470.04,2020-1-04T13:19:19Z
2020-01-04T11:21:51Z,42.805,6.029,13.2986,4.60072,2470.04,2020-1-04T13:22:22Z
2020-01-04T11:24:54Z,42.805,6.029,13.3000,4.60054,2470.087,2020-1-04T13:25:26Z
2020-01-04T11:27:57Z,42.805,6.029,13.2977,4.60021,2470.049,2020-1-04T13:28:29Z
2020-01-04T11:31:00Z,42.805,6.029,13.2983,4.60013,2470.053,2020-1-04T13:31:32Z
2020-01-04T11:34:04Z,42.805,6.029,13.2983,4.60042,2470.04,2020-1-04T13:34:35Z
2020-01-04T11:37:07Z,42.805,6.029,13.2991,4.60040,2470.077,2020-1-04T13:37:39Z
2020-01-04T11:40:10Z,42.805,6.029,13.2974,4.60037,2470.063,2020-1-04T13:40:42Z
2020-01-04T11:43:13Z,42.805,6.029,13.3007,4.60016,2470.053,2020-1-04T13:43:45Z
2020-01-04T11:46:17Z,42.805,6.029,13.2986,4.60051,2470.087,2020-1-04T13:46:48Z
2020-01-04T11:49:20Z,42.805,6.029,13.2976,4.60044,2470.063,2020-1-04T13:49:52Z
2020-01-04T11:52:23Z,42.805,6.029,13.2979,4.60049,2470.077,2020-1-04T13:52:55Z
2020-01-04T11:55:26Z,42.805,6.029,13.2985,4.60036,2470.077,2020-1-04T13:55:58Z
2020-01-04T11:58:30Z,42.805,6.029,13.3039,4.60063,2470.063,2020-1-04T13:59:01Z
2020-01-04T12:01:33Z,42.805,6.029,13.2990,4.60066,2470.087,2020-1-04T14:02:05Z
2020-01-04T12:04:36Z,42.805,6.029,13.2994,4.60050,2470.063,2020-1-04T14:05:08Z
2020-01-04T12:07:39Z,42.805,6.029,13.3010,4.60052,2470.077,2020-1-04T14:08:11Z
2020-01-04T12:10:43Z,42.805,6.029,13.2999,4.60074,2470.053,2020-1-04T14:11:14Z
2020-01-04T12:13:46Z,42.805,6.029,13.2987,4.60027,2470.04,2020-1-04T14:14:18Z
2020-01-04T12:16:49Z,42.805,6.029,13.3004,4.60072,2470.053,2020-1-04T14:17:21Z
2020-01-04T12:19:52Z,42.805,6.029,13.2997,4.60035,2470.063,2020-1-04T14:20:24Z
2020-01-04T12:22:56Z,42.805,6.029,13.2986,4.60045,2470.063,2020-1-04T14:23:27Z
2020-01-04T12:25:59Z,42.805,6.029,13.2991,4.60054,2470.087,2020-1-04T14:26:31Z
2020-01-04T12:29:02Z,42.805,6.029,13.2982,4.60068,2470.04,2020-1-04T14:29:34Z
2020-01-04T12:32:06Z,42.805,6.029,13.3011,4.60029,2470.077,2020-1-04T14:32:37Z
2020-01-04T12:35:09Z,42.805,6.029,13.2996,4.60033,2470.053,2020-1-04T14:35:40Z
2020-01-04T12:38:12Z,42.805,6.029,13.2979,4.60055,2470.1,2020-1-04T14:38:44Z
2020-01-04T12:41:15Z,42.805,6.029,13.2990,4.60057,2470.077,2020-1-04T14:41:47Z
2020-01-04T12:44:18Z,42.805,6.029,13.2983,4.60038,2470.063,2020-1-04T14:44:50Z
2020-01-04T12:47:22Z,42.805,6.029,13.2983,4.60050,2470.063,2020-1-04T14:47:53Z
2020-01-04T12:50:25Z,42.805,6.029,13.2986,4.60016,2470.04,2020-1-04T14:50:57Z
2020-01-04T12:53:28Z,42.805,6.029,13.2996,4.60034,2470.077,2020-1-04T14:54:00Z
2020-01-04T12:56:31Z,42.805,6.029,13.2987,4.60061,2470.063,2020-1-04T14:57:03Z
2020-01-04T12:59:35Z,42.805,6.029,13.2976,4.60041,2470.077,2020-1-04T15:00:06Z
2020-01-04T13:02:38Z,42.805,6.029,13.3004,4.60054,2470.04,2020-1-04T15:03:09Z
2020-01-04T13:05:41Z,42.805,6.029,13.2990,4.60049,2470.04,2020-1-04T15:06:13Z
2020-01-04T13:08:44Z,42.805,6.029,13.2986,4.60062,2470.077,2020-1-04T15:09:16Z
2020-01-04T13:11:47Z,42.805,6.029,13.2989,4.60020,2470.1,2020-1-04T15:12:19Z
2020-01-04T13:14:51Z,42.805,6.029,13.3005,4.60028,2470.077,2020-1-04T15:15:22Z
2020-01-04T13:17:54Z,42.805,6.029,13.3004,4.60051,2470.063,2020-1-04T15:18:26Z
2020-01-04T13:20:57Z,42.805,6.029,13.3011,4.59983,2470.11,2020-1-04T15:21:29Z
2020-01-04T13:24:00Z,42.805,6.029,13.3008,4.60021,2470.063,2020-1-04T15:24:32Z
2020-01-04T13:27:04Z,42.805,6.029,13.3001,4.60027,2470.063,2020-1-04T15:27:35Z
2020-01-04T13:30:07Z,42.805,6.029,13.3000,4.60043,2470.04,2020-1-04T15:30:38Z
2020-01-04T13:33:10Z,42.805,6.029,13.3012,4.60051,2470.077,2020-1-04T15:33:42Z
2020-01-04T13:36:13Z,42.805,6.029,13.2999,4.60044,2470.077,2020-1-04T15:36:45Z
2020-01-04T13:39:17Z,42.805,6.029,13.2988,4.60033,2470.1,2020-1-04T15:39:48Z
2020-01-04T13:42:20Z,42.805,6.029,13.2986,4.60031,2470.077,2020-1-04T15:42:52Z
2020-01-04T13:45:23Z,42.805,6.029,13.2990,4.60062,2470.077,2020-1-04T15:45:55Z
2020-01-04T13:48:26Z,42.805,6.029,13.3020,4.60020,2470.04,2020-1-04T15:48:58Z
2020-01-04T13:51:30Z,42.805,6.029,13.3031,4.60045,2470.077,2020-1-04T15:52:01Z
2020-01-04T13:54:33Z,42.805,6.029,13.3029,4.60013,2470.11,2020-1-04T15:55:04Z
2020-01-04T13:57:36Z,42.805,6.029,13.2992,4.60038,2470.077,2020-1-04T15:58:08Z
2020-01-04T14:00:39Z,42.805,6.029,13.2995,4.60039,2470.087,2020-1-04T16:01:11Z
2020-01-04T14:03:43Z,42.805,6.029,13.3009,4.60016,2470.063,2020-1-04T16:04:14Z
2020-01-04T14:06:46Z,42.805,6.029,13.3024,4.59992,2470.1,2020-1-04T16:07:17Z
2020-01-04T14:09:49Z,42.805,6.029,13.3026,4.60006,2470.1,2020-1-04T16:10:21Z
2020-01-04T14:12:52Z,42.805,6.029,13.3012,4.59997,2470.077,2020-1-04T16:13:24Z
2020-01-04T14:15:56Z,42.805,6.029,13.3014,4.59994,2470.11,2020-1-04T16:16:27Z
2020-01-04T14:18:59Z,42.805,6.029,13.3010,4.59991,2470.053,2020-1-04T16:19:30Z
2020-01-04T14:22:02Z,42.805,6.029,13.3009,4.59980,2470.063,2020-1-04T16:22:34Z
2020-01-04T14:25:05Z,42.805,6.029,13.3019,4.59988,2470.063,2020-1-04T16:25:37Z
2020-01-04T14:28:09Z,42.805,6.029,13.2993,4.60033,2470.077,2020-1-04T16:28:40Z
2020-01-04T14:31:12Z,42.805,6.029,13.3025,4.60039,2470.063,2020-1-04T16:31:43Z
2020-01-04T14:34:15Z,42.805,6.029,13.3004,4.60058,2470.077,2020-1-04T16:34:47Z
2020-01-04T14:37:18Z,42.805,6.029,13.2993,4.60046,2470.077,2020-1-04T16:37:50Z
2020-01-04T14:40:21Z,42.805,6.029,13.3000,4.60006,2470.077,2020-1-04T16:40:53Z
2020-01-04T14:43:25Z,42.805,6.029,13.3023,4.60062,2470.04,2020-1-04T16:43:56Z
2020-01-04T14:46:28Z,42.805,6.029,13.2993,4.60029,2470.077,2020-1-04T16:47:00Z
2020-01-04T14:49:31Z,42.805,6.029,13.2994,4.60048,2470.087,2020-1-04T16:50:03Z
2020-01-04T14:52:35Z,42.805,6.029,13.3021,4.60002,2470.063,2020-1-04T16:53:06Z
2020-01-04T14:55:38Z,42.805,6.029,13.3046,4.60025,2470.077,2020-1-04T16:56:09Z
2020-01-04T14:58:41Z,42.805,6.029,13.3046,4.60030,2470.063,2020-1-04T16:59:13Z
2020-01-04T15:01:44Z,42.805,6.029,13.3025,4.60002,2470.1,2020-1-04T17:02:16Z
2020-01-04T15:04:47Z,42.805,6.029,13.3009,4.60020,2470.077,2020-1-04T17:05:19Z
2020-01-04T15:07:51Z,42.805,6.029,13.3019,4.60006,2470.077,2020-1-04T17:08:22Z
2020-01-04T15:10:54Z,42.805,6.029,13.2994,4.59995,2470.063,2020-1-04T17:11:26Z
2020-01-04T15:13:57Z,42.805,6.029,13.3024,4.59991,2470.077,2020-1-04T17:14:29Z